Home   Weather   Zhengzhou   Past weeks

Flag for China Past Weather in Zhengzhou, Henan, China — Yesterday and Last 2 Weeks

Now
39 °F

Clear.


Feels Like: 39 °F
Forecast: 43 / 66 °F
Wind: No wind

Location: Zhengzhou Airport

Current Time: Feb 28, 2017 at 7:00:45 am

Latest Report: Feb 28, 2017 at 6:00 am


Visibility: 4 mi

Pressure: 30.12 "Hg

Humidity: 81%

Dew Point: 34 °F

Location of ZhengzhouLocation

Past Weather in Zhengzhou — Graph

°F

Zhengzhou Temperature Yesterday

Maximum temperature yesterday: 64 °F (at 2:00 pm)
Minimum temperature yesterday: 32 °F (at 5:00 am)
Average temperature yesterday: 49 °F

High & Low Weather Summary for the Past Weeks

 TemperatureHumidityPressure
High68 °F (Feb 16, 3:00 pm)100% (Feb 13, 6:00 am)30.54 "Hg (Feb 13, 6:00 am)
Low25 °F (Feb 22, 3:00 am)13% (Feb 20, 12:00 pm)29.56 "Hg (Feb 19, 3:00 pm)
Average46 °F49%30.24 "Hg
* Reported Feb 13 6:00 am — Feb 28 6:00 am, Zhengzhou, Weather by CustomWeather, © 2017

Note: Actual official high and low records may vary slightly from our data, if they occured in-between our weather recording intervals... More about our weather records

Advertising

Zhengzhou Weather History for the Previous 24 Hours

Scroll right to see more
 ConditionsComfort  
Time TempWeatherWind HumidityBarometerVisibility
6:00 am
Tue, Feb 28
39 °FClear.No wind81%30.12 "Hg4 mi
5:00 am39 °FClear.No wind75%30.12 "Hg10 mi
4:00 am43 °FClear.1 mph66%30.12 "Hg10 mi
3:00 am50 °FClear.3 mph50%30.12 "Hg10 mi
2:00 am48 °FPassing clouds.3 mph50%30.15 "HgN/A
1:00 am50 °FClear.6 mph43%30.15 "Hg10 mi
12:00 am50 °FPassing clouds.6 mph43%30.15 "HgN/A
11:00 pm
Mon, Feb 27
52 °FPassing clouds.6 mph41%30.18 "HgN/A
10:00 pm54 °FPassing clouds.6 mph35%30.18 "HgN/A
9:00 pm54 °FPassing clouds.6 mph35%30.15 "HgN/A
8:00 pm55 °FPassing clouds.8 mph36%30.15 "HgN/A
7:00 pm57 °FPassing clouds.6 mph33%30.15 "HgN/A
6:00 pm59 °FSunny.6 mph31%30.15 "Hg10 mi
5:00 pm63 °FPassing clouds.10 mph27%30.15 "HgN/A
4:00 pm63 °FPassing clouds.10 mph25%30.15 "HgN/A
3:00 pm63 °FPassing clouds.10 mph25%30.18 "HgN/A
2:00 pm64 °FPassing clouds.8 mph19%30.18 "HgN/A
1:00 pm63 °FPassing clouds.10 mph22%30.24 "HgN/A
12:00 pm61 °FPassing clouds.8 mph23%30.27 "HgN/A
11:00 am59 °FClear.6 mph27%30.30 "Hg5 mi
10:00 am55 °FClear.3 mph31%30.33 "Hg5 mi
9:00 am50 °FHaze.No wind43%30.33 "Hg3 mi
8:00 am36 °FHaze.No wind81%30.30 "Hg3 mi
7:00 am32 °FHaze.1 mph75%30.30 "Hg3 mi
Weather by CustomWeather, © 2017

See weather overviewHow to use our weather pages